Volver al catálogo

SL-3 R/B

ActivoPO
NORAD 13403·ROCKET BODY·🇷🇺 Russia

Lanzado Aug 5, 1982 desde Plesetsk Cosmodrome

Loading…

Próximos Pases (próximas 24 horas)

TLE

ActualizadoSource: Space-Track

Época: Sep 14, 2026, 14:42 UTC

1 13403U 82079B   26257.61276382  .00003779  00000-0  14290-3 0  9999
2 13403  81.1477 329.6548 0022721 243.5728 116.3175 15.26471344406509

Sigue SL-3 R/B en tiempo real con AllMySat

Download on the App Store